Location: Dover
(39.1580°N, 75.5250°W)
Time: 18:03:07
(UTC-04:00)

SeaSat 1 - Visible Passes

Search period start: 27 June 2016 00:00
Search period end: 07 July 2016 00:00
Orbit: 746 x 748 km, 108.0° (Epoch: 26 June)

Date Brightness Start Highest point End Pass type
(mag) Time Alt. Az. Time Alt. Az. Time Alt. Az.
27 Jun 3.6 00:55:21 31° W 00:55:21 31° W 00:58:54 10° NW visible
27 Jun 4.7 22:33:14 10° ENE 22:35:35 14° NE 22:37:57 10° NNE visible
28 Jun 2.3 00:12:27 88° NE 00:12:27 88° NE 00:17:24 10° NNW visible
28 Jun 3.5 23:29:32 30° E 23:30:42 34° NE 23:35:07 10° N visible
29 Jun 3.8 01:09:19 27° W 01:09:19 27° W 01:12:31 10° NW visible
29 Jun 4.7 22:46:37 10° E 22:49:15 15° NE 22:51:56 10° NNE visible
30 Jun 2.4 00:26:25 79° WNW 00:26:25 79° WNW 00:31:07 10° NNW visible
30 Jun 3.4 23:43:30 34° E 23:44:24 37° ENE 23:48:56 10° N visible
01 Jul 4.0 01:23:17 24° W 01:23:17 24° W 01:26:07 10° NW visible
01 Jul 4.6 23:00:35 12° E 23:02:55 16° NE 23:05:52 10° NNE visible
02 Jul 2.6 00:40:22 68° WNW 00:40:22 68° WNW 00:44:50 10° NNW visible
02 Jul 3.2 23:57:27 39° ENE 23:58:05 41° ENE 00:02:42 10° N visible
03 Jul 4.2 01:37:15 21° W 01:37:15 21° W 01:39:42 10° NW visible
03 Jul 4.5 23:14:32 14° ENE 23:16:35 18° NE 23:19:47 10° N visible
04 Jul 2.8 00:54:20 59° WNW 00:54:20 59° WNW 00:58:32 10° NNW visible
05 Jul 3.1 00:11:24 45° ENE 00:11:47 45° ENE 00:16:29 10° NNW visible
05 Jul 4.3 01:51:12 18° WNW 01:51:12 18° WNW 01:53:16 10° NW visible
05 Jul 4.4 23:28:29 16° ENE 23:30:14 19° NE 23:33:40 10° N visible
06 Jul 3.0 01:08:17 51° WNW 01:08:17 51° WNW 01:12:14 10° NNW visible
